West Lafayette, IN

8:07 PM EST on February 24, 2017 (GMT -0500)
Purdue Univ

Weather History for KLAF - November, 2011

Change the Weather History Date:

Wednesday, November 2, 2011

  Actual Average Record
Temperature  
Mean Temperature 60 °F 49 °F  
Max Temperature 70 °F 58 °F 75 °F (1964)
Min Temperature 49 °F 39 °F 21 °F (2006)
Degree Days  
Heating Degree Days 5 16  
Month to date heating degree days 19 32  
Since 1 July heating degree days 433 466  
Cooling Degree Days 0 0  
Month to date cooling degree days 0 0  
Year to date cooling degree days 1246 982  
Growing Degree Days 8 (Base 50)    
Moisture  
Dew Point 37 °F    
Average Humidity 45    
Maximum Humidity 56    
Minimum Humidity 33    
Precipitation  
Precipitation 0.00 in 0.09 in 1.24 in (1982)
Month to date precipitation 0.00 0.18  
Year to date precipitation 35.66 31.28  
Sea Level Pressure  
Sea Level Pressure 30.10 in    
Wind  
Wind Speed 7 mph (SSW)    
Max Wind Speed 18 mph    
Max Gust Speed 28 mph    
Visibility 10 miles    
Events      
T = Trace of Precipitation, MM = Missing Value Source: NWS Daily Summary

Daily Weather History Graph

Daily Weather History Graph

Search for Another Location

Airport or City:

Trip Planner

Search our weather history database for the weather conditions in past years. The results will help you decide how hot, cold, wet, or windy it might be!

Date:

Astronomy

Nov. 02, 2011 Rise Set
Actual Time 8:18 AM EDT 6:43 PM EDT
Civil Twilight 7:50 AM EDT 7:12 PM EDT
Nautical Twilight 7:17 AM EDT 7:44 PM EDT
Astronomical Twilight 6:46 AM EDT 8:15 PM EDT
Moon 2:37 PM EDT (11/2) 12:26 AM EDT (11/2)
Length of Visible Light 11h 21m
Length of Day
10h 25m
Waxing Crescent, 50% of the Moon is Illuminated
Nov 2
Waxing Crescent
Nov 2
First Quarter
Nov 10
Full
Nov 18
Last Quarter
Nov 25
New

Hourly Weather History & Observations

Time (EDT) Temp. Dew Point Humidity Pressure Visibility Wind Dir Wind Speed Gust Speed Precip Events Conditions
12:54 AM 53.1 °F 35.1 °F 50% 30.15 in 10.0 mi South 3.5 mph - N/A   Clear
1:54 AM 52.0 °F 35.1 °F 53% 30.15 in 10.0 mi SSW 6.9 mph - N/A   Clear
2:54 AM 51.1 °F 34.0 °F 52% 30.15 in 10.0 mi SSW 4.6 mph - N/A   Clear
3:54 AM 51.1 °F 34.0 °F 52% 30.16 in 10.0 mi South 4.6 mph - N/A   Clear
4:54 AM 50.0 °F 34.0 °F 54% 30.17 in 10.0 mi SSW 5.8 mph - N/A   Clear
5:54 AM 50.0 °F 33.1 °F 52% 30.17 in 10.0 mi SSW 5.8 mph - N/A   Clear
6:54 AM 50.0 °F 33.1 °F 52% 30.17 in 10.0 mi SSW 5.8 mph - N/A   Clear
7:54 AM 48.9 °F 33.1 °F 54% 30.17 in 10.0 mi SSW 5.8 mph - N/A   Clear
8:54 AM 50.0 °F 33.1 °F 52% 30.17 in 10.0 mi SSW 4.6 mph - N/A   Clear
9:54 AM 53.1 °F 35.1 °F 50% 30.17 in 10.0 mi SSW 8.1 mph - N/A   Clear
10:54 AM 59.0 °F 37.0 °F 44% 30.16 in 10.0 mi SW 8.1 mph - N/A   Clear
11:54 AM 62.1 °F 37.9 °F 41% 30.15 in 10.0 mi SSW 9.2 mph - N/A   Clear
12:54 PM 64.9 °F 39.9 °F 40% 30.12 in 10.0 mi SW 10.4 mph 21.9 mph N/A   Clear
1:54 PM 66.9 °F 39.0 °F 36% 30.08 in 10.0 mi SW 16.1 mph 25.3 mph N/A   Clear
2:54 PM 69.1 °F 39.9 °F 35% 30.05 in 10.0 mi SSW 13.8 mph 18.4 mph N/A   Clear
3:54 PM 69.1 °F 39.9 °F 35% 30.03 in 10.0 mi SSW 13.8 mph 21.9 mph N/A   Clear
4:54 PM 66.9 °F 39.9 °F 37% 30.01 in 10.0 mi SSW 12.7 mph 20.7 mph N/A   Clear
5:54 PM 66.0 °F 39.9 °F 38% 30.02 in 10.0 mi SSW 10.4 mph 17.3 mph N/A   Clear
6:54 PM 63.0 °F 39.9 °F 43% 30.03 in 10.0 mi SSW 6.9 mph - N/A   Clear
7:54 PM 61.0 °F 39.9 °F 46% 30.04 in 10.0 mi South 5.8 mph - N/A   Clear
8:54 PM 57.9 °F 41.0 °F 53% 30.02 in 10.0 mi SSE 4.6 mph - N/A   Clear
9:54 PM 59.0 °F 39.9 °F 49% 30.02 in 10.0 mi South 5.8 mph - N/A   Clear
11:54 PM 57.0 °F 39.9 °F 53% 29.99 in 10.0 mi South 4.6 mph - N/A   Clear